カタログに戻る

STARLINK-38186

運用中通信SSO
NORAD 100162·PAYLOAD·🇺🇸 United States

打ち上げ Jul 25, 2026 から Vandenberg Space Force Base

Loading…

次のパス (今後24時間)

TLE

最新Source: Space-Track

元期: Sep 14, 2026, 12:49 UTC

1 A0162U 26171Q   26257.53459957  .00012803  00000-0  39808-3 0  9990
2 A0162  97.2833 290.0902 0000992 104.3421 255.7932 15.33457523  7985

AllMySatでSTARLINK-38186をリアルタイム追跡

Download on the App Store